TimeEDT,TemperatureF,Dew PointF,Humidity,Sea Level PressureIn,VisibilityMPH,Wind Direction,Wind SpeedMPH,Gust SpeedMPH,PrecipitationIn,Events,Conditions,WindDirDegrees,DateUTC
1:53 AM,62.1,53.1,72,30.11,10.0,South,5.8,-,0.00,,Overcast,180,2012-09-26 05:53:00
2:53 AM,62.1,52.0,70,30.10,10.0,South,5.8,-,N/A,,Overcast,190,2012-09-26 06:53:00
3:53 AM,61.0,55.0,81,30.09,10.0,South,9.2,-,0.00,,Overcast,180,2012-09-26 07:53:00
4:53 AM,60.1,55.0,83,30.08,10.0,South,8.1,-,N/A,,Mostly Cloudy,180,2012-09-26 08:53:00
5:53 AM,60.1,55.0,83,30.10,10.0,South,5.8,-,N/A,,Overcast,190,2012-09-26 09:53:00
6:53 AM,60.1,55.0,83,30.12,10.0,South,4.6,-,0.00,,Overcast,190,2012-09-26 10:53:00
7:53 AM,61.0,55.0,81,30.13,10.0,South,5.8,-,N/A,,Mostly Cloudy,190,2012-09-26 11:53:00
8:53 AM,62.1,55.9,80,30.13,10.0,South,9.2,-,N/A,,Partly Cloudy,180,2012-09-26 12:53:00
9:53 AM,64.0,57.0,78,30.12,10.0,South,10.4,-,N/A,,Clear,180,2012-09-26 13:53:00
10:53 AM,66.9,57.9,73,30.14,10.0,SSW,8.1,-,N/A,,Mostly Cloudy,210,2012-09-26 14:53:00
11:53 AM,69.1,59.0,70,30.13,10.0,South,8.1,-,N/A,,Scattered Clouds,180,2012-09-26 15:53:00
12:53 PM,71.1,60.1,68,30.11,10.0,SSW,6.9,-,N/A,,Clear,200,2012-09-26 16:53:00
1:53 PM,75.0,60.1,60,30.09,10.0,SW,11.5,19.6,N/A,,Clear,220,2012-09-26 17:53:00
2:53 PM,77.0,59.0,54,30.07,10.0,SSW,11.5,19.6,N/A,,Scattered Clouds,210,2012-09-26 18:53:00
3:53 PM,75.9,60.1,58,30.07,10.0,SW,6.9,-,N/A,,Partly Cloudy,230,2012-09-26 19:53:00
4:53 PM,75.9,60.1,58,30.09,10.0,WSW,6.9,-,N/A,,Clear,250,2012-09-26 20:53:00
6:53 PM,72.0,59.0,64,30.12,10.0,West,3.5,-,N/A,,Partly Cloudy,280,2012-09-26 22:53:00
7:53 PM,72.0,59.0,64,30.12,10.0,Calm,Calm,-,N/A,,Clear,0,2012-09-26 23:53:00
8:53 PM,68.0,59.0,73,30.13,10.0,Calm,Calm,-,N/A,,Clear,0,2012-09-27 00:53:00
9:53 PM,69.1,59.0,70,30.16,10.0,Calm,Calm,-,N/A,,Scattered Clouds,0,2012-09-27 01:53:00
10:53 PM,68.0,59.0,73,30.13,10.0,ESE,3.5,-,N/A,,Clear,110,2012-09-27 02:53:00
11:53 PM,66.0,59.0,78,30.12,10.0,Calm,Calm,-,N/A,,Clear,0,2012-09-27 03:53:00